sat.trackr.live / text

‹ back to catalog

FLOCK 4G-14

NORAD 62667 · 2025-009BL

PAYLOAD ACTIVE UNKNOWN

§ Identity

Operator
Country
US
Launch date
2025-01-14
Launch site
AFWTR
Launch vehicle
Mass (kg)
RCS (m²)

Purposes: earth_obs

External: N2YO · Heavens-Above · Gunter

§ Orbital elements

Epoch: 2026-09-19T10:59:27.940128Z

Period
94.06 min
Inclination
97.3965°
Eccentricity
0.0003646
Mean motion
15.30913604 rev/d
Perigee alt
470.6 km
Apogee alt
475.6 km
Semi-major
6,851.2 km
B*
2.5056e-4
RAAN
343.9092°
Arg perigee
2.4289°
Mean anomaly
357.6969°
Rev number
9,331

§ Raw data

FLOCK 4G-141 62667U 25009BL  26262.45796227  .00007409  00000+0  25056-3 0  99932 62667  97.3965 343.9092 0003646   2.4289 357.6969 15.30913604 93315

JSON: /api/v1/satellites/62667 · /tle

For live sub-satellite position, see the globe view (requires WebGL).

§ Visibility from observer

Set your observer location to see the next 7 days of passes ≥ 10°. The values pass through the URL so the page stays shareable.

No JS? Fill the form by hand. The geolocation button needs JavaScript.